,,PA_Meas_PMT16A,,PR_Meas_QMR101_102,,RH_Meas_QMH101,,SR_Meas_QMS101,,TA_Meas_QMH101,,GenWind,,GenWind,
time,status,PA,status,PR,status,RH,status,SR,status,TA,status,DirAvg,status,SpdAvg,
2012-04-29, 00:00:04,VALID,918.042,VALID,0,VALID,94.6066,VALID,0,VALID,20.7349,VALID,23,VALID,0.632813,
2012-04-29, 00:01:04,VALID,918.016,VALID,0,VALID,94.8429,VALID,0,VALID,20.7349,VALID,23,VALID,0.612109,
2012-04-29, 00:02:04,VALID,918.008,VALID,0,VALID,94.8582,VALID,0,VALID,20.6959,VALID,23,VALID,0.479297,
2012-04-29, 00:03:04,VALID,917.987,VALID,0,VALID,94.9496,VALID,0,VALID,20.6358,VALID,23,VALID,0.496094,
2012-04-29, 00:04:04,VALID,917.973,VALID,0,VALID,95.064,VALID,0,VALID,20.6764,VALID,23,VALID,0.592188,
2012-04-29, 00:05:04,VALID,917.975,VALID,0,VALID,95.0335,VALID,0,VALID,20.6569,VALID,23,VALID,0.412891,
2012-04-29, 00:06:04,VALID,917.963,VALID,0,VALID,95.0716,VALID,0,VALID,20.6163,VALID,21,VALID,0.847266,
2012-04-29, 00:07:04,VALID,917.966,VALID,0,VALID,95.125,VALID,0,VALID,20.6569,VALID,18,VALID,0.845312,
2012-04-29, 00:08:04,VALID,917.966,VALID,0,VALID,95.1326,VALID,0,VALID,20.6358,VALID,18,VALID,0.766406,
2012-04-29, 00:09:04,VALID,917.944,VALID,0,VALID,95.1555,VALID,0,VALID,20.6569,VALID,18,VALID,0.817969,
2012-04-29, 00:10:04,VALID,917.891,VALID,0,VALID,95.1783,VALID,0,VALID,20.6374,VALID,18,VALID,1.16797,
2012-04-29, 00:11:04,VALID,917.918,VALID,0,VALID,95.2241,VALID,0,VALID,20.6374,VALID,17,VALID,0.766016,
2012-04-29, 00:12:04,VALID,917.899,VALID,0,VALID,95.2317,VALID,0,VALID,20.5984,VALID,18,VALID,0.598047,
2012-04-29, 00:13:04,VALID,917.922,VALID,0,VALID,95.247,VALID,0,VALID,20.5968,VALID,5,VALID,0.703906,
2012-04-29, 00:14:04,VALID,917.938,VALID,0,VALID,95.3308,VALID,0,VALID,20.5773,VALID,5,VALID,0.556641,
2012-04-29, 00:15:04,VALID,917.921,VALID,0,VALID,95.4528,VALID,0,VALID,20.5984,VALID,5,VALID,0.655859,
2012-04-29, 00:16:04,VALID,917.921,VALID,0,VALID,95.5824,VALID,0,VALID,20.5968,VALID,5,VALID,0.841406,
2012-04-29, 00:17:04,VALID,917.876,VALID,0,VALID,95.6434,VALID,0,VALID,20.6163,VALID,5,VALID,0.965625,
2012-04-29, 00:18:04,VALID,917.89,VALID,0,VALID,95.6967,VALID,0,VALID,20.6374,VALID,5,VALID,0.810156,
2012-04-29, 00:19:04,VALID,917.883,VALID,0,VALID,95.7044,VALID,0,VALID,20.6569,VALID,5,VALID,1.20938,
2012-04-29, 00:20:04,VALID,917.887,VALID,0,VALID,95.7196,VALID,0,VALID,20.6569,VALID,5,VALID,0.893359,
2012-04-29, 00:21:04,VALID,917.891,VALID,0,VALID,95.7577,VALID,0,VALID,20.6569,VALID,5,VALID,0.526563,
2012-04-29, 00:22:04,VALID,917.905,VALID,0,VALID,95.834,VALID,0.107441,VALID,20.6959,VALID,5,VALID,0.270312,
2012-04-29, 00:23:04,VALID,917.89,VALID,0,VALID,95.8416,VALID,0,VALID,20.6959,VALID,5,VALID,0.339063,
2012-04-29, 00:24:04,VALID,917.867,VALID,0,VALID,95.834,VALID,0,VALID,20.6764,VALID,5,VALID,0,
2012-04-29, 00:25:04,VALID,917.842,VALID,0,VALID,95.8187,VALID,0,VALID,20.7154,VALID,5,VALID,0,
2012-04-29, 00:26:04,VALID,917.824,VALID,0,VALID,95.8492,VALID,0,VALID,20.7138,VALID,5,VALID,0,
2012-04-29, 00:27:04,VALID,917.824,VALID,0,VALID,95.8263,VALID,0,VALID,20.7349,VALID,5,VALID,0,
2012-04-29, 00:28:04,VALID,917.844,VALID,0,VALID,95.7882,VALID,0,VALID,20.7349,VALID,5,VALID,0,
2012-04-29, 00:29:04,VALID,917.817,VALID,0,VALID,95.6967,VALID,0,VALID,20.6959,VALID,5,VALID,0,
2012-04-29, 00:30:04,VALID,917.848,VALID,0,VALID,95.5976,VALID,0,VALID,20.6764,VALID,5,VALID,0.166406,
2012-04-29, 00:31:04,VALID,917.82,VALID,0,VALID,95.5976,VALID,0,VALID,20.6585,VALID,5,VALID,0.655859,
2012-04-29, 00:32:04,VALID,917.828,VALID,0,VALID,95.6205,VALID,0,VALID,20.5984,VALID,5,VALID,0.496875,
2012-04-29, 00:33:04,VALID,917.803,VALID,0,VALID,95.6357,VALID,0,VALID,20.5594,VALID,5,VALID,0.813672,
2012-04-29, 00:34:04,VALID,917.782,VALID,0,VALID,95.6662,VALID,0,VALID,20.5399,VALID,5,VALID,0.850391,
2012-04-29, 00:35:04,VALID,917.765,VALID,0,VALID,95.7882,VALID,0,VALID,20.5399,VALID,5,VALID,0.902344,
2012-04-29, 00:36:04,VALID,917.776,VALID,0,VALID,95.8721,VALID,0,VALID,20.5009,VALID,5,VALID,0.865625,
2012-04-29, 00:37:04,VALID,917.758,VALID,0,VALID,95.8873,VALID,0,VALID,20.4813,VALID,5,VALID,0.764063,
2012-04-29, 00:38:04,VALID,917.74,VALID,0,VALID,95.8568,VALID,0,VALID,20.4618,VALID,5,VALID,1.08984,
2012-04-29, 00:39:04,VALID,917.696,VALID,0,VALID,95.9407,VALID,0,VALID,20.4618,VALID,5,VALID,1.44922,
2012-04-29, 00:40:04,VALID,917.676,VALID,0,VALID,95.9178,VALID,0,VALID,20.4618,VALID,5,VALID,0.871094,
2012-04-29, 00:41:04,VALID,917.66,VALID,0,VALID,95.9941,VALID,0,VALID,20.4423,VALID,5,VALID,0.999609,
2012-04-29, 00:42:04,VALID,917.685,VALID,0,VALID,96.0627,VALID,0,VALID,20.4813,VALID,5,VALID,0.719531,
2012-04-29, 00:43:04,VALID,917.665,VALID,0,VALID,96.0627,VALID,0,VALID,20.5009,VALID,5,VALID,0.484766,
2012-04-29, 00:44:04,VALID,917.685,VALID,0,VALID,96.0779,VALID,0,VALID,20.5204,VALID,5,VALID,0.353125,
2012-04-29, 00:45:04,VALID,917.674,VALID,0,VALID,96.0169,VALID,0,VALID,20.5204,VALID,5,VALID,0.361328,
2012-04-29, 00:46:04,VALID,917.658,VALID,0,VALID,95.9331,VALID,0,VALID,20.5414,VALID,5,VALID,0.436719,
2012-04-29, 00:47:04,VALID,917.614,VALID,0,VALID,95.8111,VALID,0,VALID,20.5009,VALID,5,VALID,0.548047,
2012-04-29, 00:48:04,VALID,917.598,VALID,0,VALID,95.7654,VALID,0,VALID,20.4829,VALID,5,VALID,0.610937,
2012-04-29, 00:49:04,VALID,917.617,VALID,0,VALID,95.7577,VALID,0,VALID,20.4423,VALID,5,VALID,0.384766,
2012-04-29, 00:50:04,VALID,917.62,VALID,0,VALID,95.712,VALID,0,VALID,20.4618,VALID,5,VALID,0.512109,
2012-04-29, 00:51:04,VALID,917.599,VALID,0,VALID,95.7044,VALID,0,VALID,20.4228,VALID,5,VALID,0.334375,
2012-04-29, 00:52:04,VALID,917.611,VALID,0,VALID,95.7577,VALID,0,VALID,20.4423,VALID,6,VALID,0.510938,
2012-04-29, 00:53:04,VALID,917.604,VALID,0,VALID,95.7425,VALID,0,VALID,20.4228,VALID,5,VALID,0.614062,
2012-04-29, 00:54:04,VALID,917.591,VALID,0,VALID,95.7272,VALID,0,VALID,20.4423,VALID,5,VALID,0.705078,
2012-04-29, 00:55:04,VALID,917.566,VALID,0,VALID,95.651,VALID,0,VALID,20.4423,VALID,5,VALID,0.519531,
2012-04-29, 00:56:04,VALID,917.57,VALID,0,VALID,95.59,VALID,0,VALID,20.4033,VALID,5,VALID,0.697656,
2012-04-29, 00:57:04,VALID,917.532,VALID,0,VALID,95.5062,VALID,0,VALID,20.4033,VALID,6,VALID,0.675,
2012-04-29, 00:58:04,VALID,917.527,VALID,0,VALID,95.4909,VALID,0,VALID,20.3448,VALID,6,VALID,0.981641,
2012-04-29, 00:59:04,VALID,917.476,VALID,0,VALID,95.6129,VALID,0,VALID,20.3253,VALID,5,VALID,0.955469,
2012-04-29, 01:00:04,VALID,917.475,VALID,0,VALID,95.712,VALID,0,VALID,20.3253,VALID,5,VALID,0.882031,
2012-04-29, 01:01:04,VALID,917.459,VALID,0,VALID,95.7196,VALID,0,VALID,20.3448,VALID,5,VALID,0.461719,
2012-04-29, 01:02:04,VALID,917.46,VALID,0,VALID,95.8111,VALID,0,VALID,20.3659,VALID,6,VALID,0.573438,
2012-04-29, 01:03:04,VALID,917.455,VALID,0,VALID,95.8263,VALID,0,VALID,20.3448,VALID,5,VALID,0.512891,
2012-04-29, 01:04:04,VALID,917.465,VALID,0,VALID,95.7501,VALID,0,VALID,20.3238,VALID,5,VALID,0.391016,
2012-04-29, 01:05:04,VALID,917.405,VALID,0,VALID,95.7272,VALID,0,VALID,20.3253,VALID,5,VALID,0.298047,
2012-04-29, 01:06:04,VALID,917.422,VALID,0,VALID,95.651,VALID,0,VALID,20.3253,VALID,5,VALID,0.394531,
2012-04-29, 01:07:04,VALID,917.41,VALID,0,VALID,95.6434,VALID,0,VALID,20.3253,VALID,5,VALID,0.174609,
2012-04-29, 01:08:04,VALID,917.366,VALID,0,VALID,95.651,VALID,0,VALID,20.3643,VALID,5,VALID,0.190625,
2012-04-29, 01:09:04,VALID,917.373,VALID,0,VALID,95.5748,VALID,0,VALID,20.4033,VALID,5,VALID,0.0121094,
2012-04-29, 01:10:04,VALID,917.386,VALID,0,VALID,95.4071,VALID,0,VALID,20.3643,VALID,5,VALID,0.0820313,
2012-04-29, 01:11:04,VALID,917.38,VALID,0,VALID,95.3232,VALID,0,VALID,20.4033,VALID,6,VALID,0.201172,
2012-04-29, 01:12:04,VALID,917.337,VALID,0,VALID,95.2546,VALID,0,VALID,20.4033,VALID,6,VALID,0.595312,
2012-04-29, 01:13:04,VALID,917.345,VALID,0,VALID,95.1631,VALID,0,VALID,20.4634,VALID,5,VALID,0.00195313,
2012-04-29, 01:14:04,VALID,917.352,VALID,0,VALID,95.0564,VALID,0,VALID,20.4634,VALID,5,VALID,0,
2012-04-29, 01:15:04,VALID,917.355,VALID,0,VALID,94.9192,VALID,0,VALID,20.4618,VALID,5,VALID,0.009375,
2012-04-29, 01:16:04,VALID,917.35,VALID,0,VALID,94.8353,VALID,0,VALID,20.4813,VALID,5,VALID,0,
2012-04-29, 01:17:04,VALID,917.328,VALID,0,VALID,94.6676,VALID,0,VALID,20.4813,VALID,5,VALID,0.00078125,
2012-04-29, 01:18:04,VALID,917.315,VALID,0,VALID,93.9738,VALID,0,VALID,20.3838,VALID,5,VALID,0.00429688,
2012-04-29, 01:19:04,VALID,917.337,VALID,0,VALID,93.303,VALID,0,VALID,20.2863,VALID,5,VALID,0.494531,
2012-04-29, 01:20:04,VALID,917.334,VALID,0,VALID,93.6689,VALID,0,VALID,20.2489,VALID,5,VALID,0.0707031,
2012-04-29, 01:21:04,VALID,917.349,VALID,0,VALID,94.1568,VALID,0,VALID,20.2278,VALID,5,VALID,0,
2012-04-29, 01:22:04,VALID,917.351,VALID,0,VALID,94.5304,VALID,0,VALID,20.2293,VALID,5,VALID,0,
2012-04-29, 01:23:04,VALID,917.319,VALID,0,VALID,94.7362,VALID,0,VALID,20.1888,VALID,5,VALID,0,
2012-04-29, 01:24:04,VALID,917.297,VALID,0,VALID,94.9192,VALID,0,VALID,20.1888,VALID,5,VALID,0,
2012-04-29, 01:25:04,VALID,917.23,VALID,0,VALID,95.1097,VALID,0,VALID,20.1888,VALID,5,VALID,0,
2012-04-29, 01:26:04,VALID,917.21,VALID,0,VALID,95.2546,VALID,0,VALID,20.1888,VALID,5,VALID,0,
2012-04-29, 01:27:04,VALID,917.194,VALID,0,VALID,95.3537,VALID,0,VALID,20.1888,VALID,5,VALID,0,
2012-04-29, 01:28:04,VALID,917.14,VALID,0,VALID,95.3232,VALID,0,VALID,20.1303,VALID,5,VALID,0,
2012-04-29, 01:29:04,VALID,917.151,VALID,0,VALID,95.2775,VALID,0,VALID,20.1513,VALID,5,VALID,0,
2012-04-29, 01:30:04,VALID,917.124,VALID,0,VALID,95.4375,VALID,0,VALID,20.1288,VALID,5,VALID,0.00585938,
2012-04-29, 01:31:04,VALID,917.082,VALID,0,VALID,95.3918,VALID,0,VALID,20.1498,VALID,5,VALID,0.01875,
2012-04-29, 01:32:04,VALID,917.091,VALID,0,VALID,95.3308,VALID,0,VALID,20.1303,VALID,5,VALID,0,
2012-04-29, 01:33:04,VALID,917.086,VALID,0,VALID,95.2317,VALID,0,VALID,20.1498,VALID,5,VALID,0.316797,
2012-04-29, 01:34:04,VALID,917.079,VALID,0,VALID,95.1631,VALID,0,VALID,20.1108,VALID,5,VALID,0.135547,
2012-04-29, 01:35:04,VALID,917.11,VALID,0,VALID,95.0411,VALID,0,VALID,20.1108,VALID,5,VALID,0.276953,
2012-04-29, 01:36:04,VALID,917.094,VALID,0,VALID,95.0259,VALID,0,VALID,20.1108,VALID,5,VALID,0,
2012-04-29, 01:37:04,VALID,917.093,VALID,0,VALID,95.0564,VALID,0,VALID,20.1108,VALID,5,VALID,0.167578,
2012-04-29, 01:38:04,VALID,917.083,VALID,0,VALID,95.1097,VALID,0,VALID,20.1303,VALID,5,VALID,0,
2012-04-29, 01:39:04,VALID,917.085,VALID,0,VALID,95.064,VALID,0,VALID,20.1498,VALID,5,VALID,0,
2012-04-29, 01:40:04,VALID,917.076,VALID,0,VALID,94.9344,VALID,0,VALID,20.1498,VALID,5,VALID,0,
2012-04-29, 01:41:04,VALID,917.039,VALID,0,VALID,94.8124,VALID,0,VALID,20.0898,VALID,5,VALID,0,
2012-04-29, 01:42:04,VALID,917.069,VALID,0,VALID,94.9039,VALID,0,VALID,20.1303,VALID,5,VALID,0,
2012-04-29, 01:43:04,VALID,917.086,VALID,0,VALID,94.9801,VALID,0,VALID,20.1108,VALID,5,VALID,0.196484,
2012-04-29, 01:44:04,VALID,917.096,VALID,0,VALID,95.1479,VALID,0,VALID,20.1693,VALID,5,VALID,0.201562,
2012-04-29, 01:45:04,VALID,917.117,VALID,0,VALID,95.1631,VALID,0,VALID,20.1693,VALID,6,VALID,0,
2012-04-29, 01:46:04,VALID,917.11,VALID,0,VALID,95.1402,VALID,0,VALID,20.1888,VALID,6,VALID,0,
2012-04-29, 01:47:04,VALID,917.112,VALID,0,VALID,95.1402,VALID,0.107441,VALID,20.1678,VALID,6,VALID,0,
2012-04-29, 01:48:04,VALID,917.077,VALID,0,VALID,95.125,VALID,0.107441,VALID,20.1873,VALID,5,VALID,0,
2012-04-29, 01:49:04,VALID,917.087,VALID,0,VALID,95.125,VALID,0,VALID,20.1873,VALID,6,VALID,0,
2012-04-29, 01:50:04,VALID,917.01,VALID,0,VALID,95.1326,VALID,0.107441,VALID,20.1678,VALID,5,VALID,0,
2012-04-29, 01:51:04,VALID,917.017,VALID,0,VALID,95.1479,VALID,0.107441,VALID,20.1678,VALID,5,VALID,0,
2012-04-29, 01:52:04,VALID,916.995,VALID,0,VALID,95.0716,VALID,0,VALID,20.1483,VALID,5,VALID,0,
2012-04-29, 01:53:04,VALID,916.944,VALID,0,VALID,94.7362,VALID,0,VALID,20.0703,VALID,5,VALID,0,
2012-04-29, 01:54:04,VALID,916.943,VALID,0,VALID,94.3703,VALID,0.107441,VALID,20.0118,VALID,6,VALID,0,
2012-04-29, 01:55:04,VALID,916.928,VALID,0,VALID,94.0425,VALID,0,VALID,19.8768,VALID,5,VALID,0,
2012-04-29, 01:56:04,VALID,916.932,VALID,0,VALID,93.7223,VALID,0,VALID,19.7403,VALID,5,VALID,0.292188,
2012-04-29, 01:57:04,VALID,916.906,VALID,0,VALID,94.233,VALID,0,VALID,19.6428,VALID,5,VALID,0.912891,
2012-04-29, 01:58:04,VALID,916.877,VALID,0,VALID,94.5837,VALID,0,VALID,19.5843,VALID,5,VALID,0.910937,
2012-04-29, 01:59:04,VALID,916.866,VALID,0,VALID,94.9115,VALID,0,VALID,19.5258,VALID,5,VALID,0.941016,
2012-04-29, 02:00:04,VALID,916.847,VALID,0,VALID,95.1555,VALID,0,VALID,19.4868,VALID,5,VALID,0.9375,
2012-04-29, 02:01:04,VALID,916.856,VALID,0,VALID,95.529,VALID,0,VALID,19.5078,VALID,5,VALID,0.775,
2012-04-29, 02:02:04,VALID,916.851,VALID,0,VALID,95.834,VALID,0,VALID,19.5063,VALID,6,VALID,0.887891,
2012-04-29, 02:03:04,VALID,916.822,VALID,0,VALID,96.0322,VALID,0,VALID,19.5648,VALID,6,VALID,0.679688,
2012-04-29, 02:04:04,VALID,916.809,VALID,0,VALID,96.116,VALID,0,VALID,19.5663,VALID,6,VALID,0.5625,
2012-04-29, 02:05:04,VALID,916.796,VALID,0,VALID,96.1541,VALID,0,VALID,19.5258,VALID,6,VALID,0.464844,
2012-04-29, 02:06:04,VALID,916.766,VALID,0,VALID,96.1541,VALID,0,VALID,19.5273,VALID,6,VALID,0.316016,
2012-04-29, 02:07:04,VALID,916.754,VALID,0,VALID,96.177,VALID,0,VALID,19.5273,VALID,6,VALID,0,
2012-04-29, 02:08:04,VALID,916.74,VALID,0,VALID,96.1999,VALID,0,VALID,19.5078,VALID,6,VALID,0,
2012-04-29, 02:09:04,VALID,916.708,VALID,0,VALID,96.2761,VALID,0,VALID,19.5258,VALID,6,VALID,0,
2012-04-29, 02:10:04,VALID,916.709,VALID,0,VALID,96.116,VALID,0,VALID,19.4868,VALID,6,VALID,0,
2012-04-29, 02:11:04,VALID,916.695,VALID,0,VALID,96.1618,VALID,0,VALID,19.4673,VALID,6,VALID,0,
2012-04-29, 02:12:04,VALID,916.72,VALID,0,VALID,96.1618,VALID,0,VALID,19.4688,VALID,6,VALID,0,
2012-04-29, 02:13:04,VALID,916.729,VALID,0,VALID,96.1313,VALID,0,VALID,19.4298,VALID,6,VALID,0,
2012-04-29, 02:14:04,VALID,916.731,VALID,0,VALID,96.1618,VALID,0,VALID,19.4688,VALID,6,VALID,0.00546875,
2012-04-29, 02:15:04,VALID,916.742,VALID,0,VALID,95.7349,VALID,0,VALID,19.3323,VALID,6,VALID,0,
2012-04-29, 02:16:04,VALID,916.739,VALID,0,VALID,95.4452,VALID,0,VALID,19.2348,VALID,6,VALID,0,
2012-04-29, 02:17:04,VALID,916.739,VALID,0,VALID,95.7882,VALID,0,VALID,19.2139,VALID,6,VALID,0,
2012-04-29, 02:18:04,VALID,916.723,VALID,0,VALID,96.0322,VALID,0,VALID,19.2528,VALID,6,VALID,0,
2012-04-29, 02:19:04,VALID,916.729,VALID,0,VALID,96.0855,VALID,0,VALID,19.2918,VALID,6,VALID,0,
2012-04-29, 02:20:04,VALID,916.736,VALID,0,VALID,95.9026,VALID,0,VALID,19.2528,VALID,6,VALID,0,
2012-04-29, 02:21:04,VALID,916.695,VALID,0,VALID,95.8416,VALID,0,VALID,19.1944,VALID,6,VALID,0,
2012-04-29, 02:22:04,VALID,916.687,VALID,0,VALID,95.3766,VALID,0,VALID,19.0579,VALID,6,VALID,0,
2012-04-29, 02:23:04,VALID,916.695,VALID,0,VALID,95.3689,VALID,0,VALID,19.0203,VALID,6,VALID,0,
2012-04-29, 02:24:04,VALID,916.638,VALID,0,VALID,95.7425,VALID,0,VALID,19.0788,VALID,6,VALID,0,
2012-04-29, 02:25:04,VALID,916.647,VALID,0,VALID,95.9331,VALID,0,VALID,19.0759,VALID,6,VALID,0,
2012-04-29, 02:26:04,VALID,916.618,VALID,0,VALID,96.1313,VALID,0.107441,VALID,19.1164,VALID,6,VALID,0.0929687,
2012-04-29, 02:27:04,VALID,916.606,VALID,0,VALID,96.2914,VALID,0,VALID,19.1749,VALID,6,VALID,0.203516,
2012-04-29, 02:28:04,VALID,916.596,VALID,0,VALID,96.4591,VALID,0,VALID,19.1929,VALID,6,VALID,0,
2012-04-29, 02:29:04,VALID,916.606,VALID,0,VALID,96.5658,VALID,0.107441,VALID,19.2709,VALID,6,VALID,0,
2012-04-29, 02:30:04,VALID,916.645,VALID,0,VALID,96.6039,VALID,0.107441,VALID,19.2904,VALID,6,VALID,0,
2012-04-29, 02:31:04,VALID,916.633,VALID,0,VALID,96.6039,VALID,0,VALID,19.3113,VALID,6,VALID,0,
2012-04-29, 02:32:04,VALID,916.613,VALID,0,VALID,96.5201,VALID,0,VALID,19.2723,VALID,6,VALID,0,
2012-04-29, 02:33:04,VALID,916.629,VALID,0,VALID,96.4743,VALID,0,VALID,19.2514,VALID,6,VALID,0,
2012-04-29, 02:34:04,VALID,916.612,VALID,0,VALID,96.5429,VALID,0.107441,VALID,19.2723,VALID,6,VALID,0,
2012-04-29, 02:35:04,VALID,916.607,VALID,0,VALID,95.8797,VALID,0,VALID,19.0579,VALID,6,VALID,0,
2012-04-29, 02:36:04,VALID,916.58,VALID,0,VALID,95.8035,VALID,0,VALID,18.881,VALID,6,VALID,0.910937,
2012-04-29, 02:37:04,VALID,916.597,VALID,0,VALID,96.36,VALID,0,VALID,18.9994,VALID,6,VALID,0.837891,
2012-04-29, 02:38:04,VALID,916.622,VALID,0,VALID,96.5353,VALID,0,VALID,18.998,VALID,6,VALID,0.448047,
2012-04-29, 02:39:04,VALID,916.56,VALID,0,VALID,96.6115,VALID,0.107441,VALID,19.0384,VALID,6,VALID,0.373437,
2012-04-29, 02:40:04,VALID,916.551,VALID,0,VALID,96.7793,VALID,0,VALID,19.0579,VALID,6,VALID,0.266797,
2012-04-29, 02:41:04,VALID,916.546,VALID,0,VALID,96.7945,VALID,0,VALID,19.0759,VALID,6,VALID,0,
2012-04-29, 02:42:04,VALID,916.547,VALID,0,VALID,96.8403,VALID,0,VALID,19.0564,VALID,6,VALID,0,
2012-04-29, 02:43:04,VALID,916.538,VALID,0,VALID,96.7793,VALID,0,VALID,19.0579,VALID,6,VALID,0,
2012-04-29, 02:44:04,VALID,916.545,VALID,0,VALID,96.8174,VALID,0.107441,VALID,19.0564,VALID,6,VALID,0,
2012-04-29, 02:45:04,VALID,916.55,VALID,0,VALID,96.8555,VALID,0,VALID,19.0774,VALID,6,VALID,0,
2012-04-29, 02:46:04,VALID,916.54,VALID,0,VALID,96.8479,VALID,0,VALID,19.0369,VALID,6,VALID,0,
2012-04-29, 02:47:04,VALID,916.547,VALID,0,VALID,96.7869,VALID,0,VALID,19.0384,VALID,6,VALID,0.236719,
2012-04-29, 02:48:04,VALID,916.544,VALID,0,VALID,96.3829,VALID,0.107441,VALID,18.8434,VALID,6,VALID,0.716406,
2012-04-29, 02:49:04,VALID,916.568,VALID,0,VALID,96.5201,VALID,0,VALID,18.746,VALID,6,VALID,0.71875,
2012-04-29, 02:50:04,VALID,916.537,VALID,0,VALID,96.9317,VALID,0.107441,VALID,18.8045,VALID,6,VALID,0.707812,
2012-04-29, 02:51:04,VALID,916.509,VALID,0,VALID,97.0918,VALID,0,VALID,18.8629,VALID,6,VALID,0.430859,
2012-04-29, 02:52:04,VALID,916.495,VALID,0,VALID,96.9851,VALID,0,VALID,18.8629,VALID,6,VALID,0.167578,
2012-04-29, 02:53:04,VALID,916.523,VALID,0,VALID,97.008,VALID,0,VALID,18.8225,VALID,6,VALID,0,
2012-04-29, 02:54:04,VALID,916.516,VALID,0,VALID,97.0232,VALID,0,VALID,18.8434,VALID,6,VALID,0,
2012-04-29, 02:55:04,VALID,916.493,VALID,0,VALID,97.0308,VALID,0.107441,VALID,18.8434,VALID,6,VALID,0,
2012-04-29, 02:56:04,VALID,916.491,VALID,0,VALID,97.0461,VALID,0,VALID,18.8434,VALID,6,VALID,0,
2012-04-29, 02:57:04,VALID,916.452,VALID,0,VALID,96.886,VALID,0,VALID,18.785,VALID,6,VALID,0.182031,
2012-04-29, 02:58:04,VALID,916.482,VALID,0,VALID,96.9317,VALID,0,VALID,18.7265,VALID,6,VALID,0.318359,
2012-04-29, 02:59:04,VALID,916.486,VALID,0,VALID,96.947,VALID,0,VALID,18.668,VALID,6,VALID,0.255078,
2012-04-29, 03:00:04,VALID,916.467,VALID,0,VALID,97.0842,VALID,0.107441,VALID,18.707,VALID,6,VALID,0.0898438,
2012-04-29, 03:01:04,VALID,916.473,VALID,0,VALID,97.1528,VALID,0,VALID,18.707,VALID,6,VALID,0,
2012-04-29, 03:02:04,VALID,916.461,VALID,0,VALID,97.1376,VALID,0,VALID,18.7265,VALID,6,VALID,0,
2012-04-29, 03:03:04,VALID,916.502,VALID,0,VALID,97.1833,VALID,0,VALID,18.6666,VALID,6,VALID,0,
2012-04-29, 03:04:04,VALID,916.472,VALID,0,VALID,97.1757,VALID,0.107441,VALID,18.6861,VALID,6,VALID,0,
2012-04-29, 03:05:04,VALID,916.481,VALID,0,VALID,97.1528,VALID,0,VALID,18.7265,VALID,6,VALID,0.151172,
2012-04-29, 03:06:04,VALID,916.45,VALID,0,VALID,97.1909,VALID,0,VALID,18.7265,VALID,6,VALID,0,
2012-04-29, 03:07:04,VALID,916.405,VALID,0,VALID,97.1986,VALID,0,VALID,18.785,VALID,6,VALID,0,
2012-04-29, 03:08:04,VALID,916.424,VALID,0,VALID,97.1986,VALID,0,VALID,18.7655,VALID,6,VALID,0,
2012-04-29, 03:09:04,VALID,916.38,VALID,0,VALID,97.1681,VALID,0,VALID,18.7265,VALID,6,VALID,0,
2012-04-29, 03:10:04,VALID,916.394,VALID,0,VALID,97.0994,VALID,0,VALID,18.6875,VALID,6,VALID,0,
2012-04-29, 03:11:04,VALID,916.392,VALID,0,VALID,96.9851,VALID,0,VALID,18.6095,VALID,6,VALID,0,
2012-04-29, 03:12:04,VALID,916.385,VALID,0,VALID,96.9927,VALID,0,VALID,18.59,VALID,6,VALID,0.415234,
2012-04-29, 03:13:04,VALID,916.418,VALID,0,VALID,97.0232,VALID,0.107441,VALID,18.5705,VALID,6,VALID,0,
2012-04-29, 03:14:04,VALID,916.483,VALID,0,VALID,97.0308,VALID,0.107441,VALID,18.4926,VALID,6,VALID,0,
2012-04-29, 03:15:04,VALID,916.442,VALID,0,VALID,97.008,VALID,0,VALID,18.4926,VALID,6,VALID,0,
2012-04-29, 03:16:04,VALID,916.45,VALID,0,VALID,97.0308,VALID,0,VALID,18.4731,VALID,6,VALID,0.273047,
2012-04-29, 03:17:04,VALID,916.473,VALID,0,VALID,97.069,VALID,0,VALID,18.4341,VALID,6,VALID,0.485547,
2012-04-29, 03:18:04,VALID,916.471,VALID,0,VALID,97.229,VALID,0.107441,VALID,18.5121,VALID,6,VALID,0.583984,
2012-04-29, 03:19:04,VALID,916.462,VALID,0,VALID,97.2824,VALID,0,VALID,18.5511,VALID,6,VALID,0.611719,
2012-04-29, 03:20:04,VALID,916.449,VALID,0,VALID,97.29,VALID,0,VALID,18.5705,VALID,6,VALID,0.429688,
2012-04-29, 03:21:04,VALID,916.466,VALID,0,VALID,97.29,VALID,0.107441,VALID,18.6095,VALID,6,VALID,0.380469,
2012-04-29, 03:22:04,VALID,916.417,VALID,0,VALID,97.3053,VALID,0,VALID,18.629,VALID,6,VALID,0.0960938,
2012-04-29, 03:23:04,VALID,916.411,VALID,0,VALID,97.3129,VALID,0,VALID,18.629,VALID,6,VALID,0.00078125,
2012-04-29, 03:24:04,VALID,916.411,VALID,0,VALID,97.2595,VALID,0,VALID,18.5705,VALID,6,VALID,0,
2012-04-29, 03:25:04,VALID,916.401,VALID,0,VALID,97.0537,VALID,0,VALID,18.4341,VALID,6,VALID,0,
2012-04-29, 03:26:04,VALID,916.383,VALID,0,VALID,97.1452,VALID,0,VALID,18.4341,VALID,6,VALID,0,
2012-04-29, 03:27:04,VALID,916.373,VALID,0,VALID,97.1757,VALID,0,VALID,18.455,VALID,6,VALID,0,
2012-04-29, 03:28:04,VALID,916.382,VALID,0,VALID,97.2595,VALID,0,VALID,18.4341,VALID,6,VALID,0,
2012-04-29, 03:29:04,VALID,916.392,VALID,0,VALID,97.2977,VALID,0,VALID,18.572,VALID,6,VALID,0,
2012-04-29, 03:30:04,VALID,916.407,VALID,0,VALID,97.3053,VALID,0,VALID,18.572,VALID,6,VALID,0,
2012-04-29, 03:31:04,VALID,916.388,VALID,0,VALID,97.2595,VALID,0,VALID,18.4926,VALID,6,VALID,0,
2012-04-29, 03:32:04,VALID,916.381,VALID,0,VALID,96.6268,VALID,0,VALID,18.2782,VALID,6,VALID,0.182422,
2012-04-29, 03:33:04,VALID,916.375,VALID,0,VALID,96.642,VALID,0,VALID,18.1417,VALID,6,VALID,0,
2012-04-29, 03:34:04,VALID,916.367,VALID,0,VALID,97.2824,VALID,0,VALID,18.2587,VALID,6,VALID,0,
2012-04-29, 03:35:04,VALID,916.436,VALID,0,VALID,97.3129,VALID,0,VALID,18.3561,VALID,6,VALID,0,
2012-04-29, 03:36:04,VALID,916.384,VALID,0,VALID,97.2748,VALID,0,VALID,18.3172,VALID,6,VALID,0,
2012-04-29, 03:37:04,VALID,916.404,VALID,0,VALID,97.2443,VALID,0,VALID,18.3575,VALID,6,VALID,0,
2012-04-29, 03:38:04,VALID,916.373,VALID,0,VALID,97.2138,VALID,0,VALID,18.3366,VALID,6,VALID,0.0398437,
2012-04-29, 03:39:04,VALID,916.366,VALID,0,VALID,96.8326,VALID,0,VALID,18.1612,VALID,6,VALID,0.763672,
2012-04-29, 03:40:04,VALID,916.385,VALID,0,VALID,96.8403,VALID,0,VALID,18.1028,VALID,6,VALID,0.252344,
2012-04-29, 03:41:04,VALID,916.404,VALID,0,VALID,96.8936,VALID,0,VALID,18.0846,VALID,6,VALID,0,
2012-04-29, 03:42:04,VALID,916.444,VALID,0,VALID,97.008,VALID,0,VALID,18.0846,VALID,6,VALID,0,
2012-04-29, 03:43:04,VALID,916.495,VALID,0,VALID,97.0613,VALID,0,VALID,18.1028,VALID,6,VALID,0,
2012-04-29, 03:44:04,VALID,916.515,VALID,0,VALID,97.2062,VALID,0,VALID,18.1821,VALID,6,VALID,0,
2012-04-29, 03:45:04,VALID,916.531,VALID,0,VALID,97.3434,VALID,0,VALID,18.2587,VALID,6,VALID,0.455469,
2012-04-29, 03:46:04,VALID,916.509,VALID,0,VALID,97.351,VALID,0,VALID,18.338,VALID,6,VALID,0.954297,
2012-04-29, 03:47:04,VALID,916.505,VALID,0,VALID,97.1986,VALID,0,VALID,18.2601,VALID,65,VALID,1.37305,
2012-04-29, 03:48:04,VALID,916.444,VALID,0,VALID,97.0766,VALID,0,VALID,18.2002,VALID,64,VALID,1.48438,
2012-04-29, 03:49:04,VALID,916.448,VALID,0,VALID,97.0613,VALID,0,VALID,18.1236,VALID,64,VALID,1.30469,
2012-04-29, 03:50:04,VALID,916.482,VALID,0,VALID,97.2748,VALID,0,VALID,18.1222,VALID,64,VALID,0.911328,
2012-04-29, 03:51:04,VALID,916.522,VALID,0,VALID,97.29,VALID,0,VALID,18.1431,VALID,64,VALID,0.280469,
2012-04-29, 03:52:04,VALID,916.557,VALID,0,VALID,97.3281,VALID,0,VALID,18.1028,VALID,64,VALID,0.427734,
2012-04-29, 03:53:04,VALID,916.561,VALID,0,VALID,97.3815,VALID,0,VALID,18.299,VALID,64,VALID,0.355469,